Regional Weather Roundup
Issued by NWS

Home | Current Version | Previous Version | Text Only | Print | Product List | Glossary Off
Versions: 1 2 3 4 5 6 7 8 9 10 11 12 13 14 15 16 17 18 19 20 21 22 23 24 25 26 27 28 29 30 31 32 33 34 35 36 37 38 39 40 41 42 43 44 45 46 47 48 49 50

000
ASUS43 KBIS 271431
RWRND
NORTH DAKOTA REGIONAL WEATHER ROUNDUP
NATIONAL WEATHER SERVICE EASTERN NORTH DAKOTA/GRAND FORKS ND
900 AM CDT TUE JUN 27 2017

  NOTE: "FAIR" INDICATES FEW OR NO CLOUDS BELOW 12,000 FEET WITH NO
  SIGNIFICANT WEATHER AND/OR OBSTRUCTIONS TO VISIBILITY.

NDZ001>003-009>011-017-271500-
...NORTHWEST NORTH DAKOTA...

CITY           SKY/WX    TMP DP  RH WIND       PRES   REMARKS
WILLISTON      FAIR      69  42  37 S13       29.64F
MINOT          FAIR      67  42  40 SE18G25   29.68F
MINOT AFB      FAIR      67  43  41 S21G26    29.67F
$$

NDZ018>021-031>035-040>046-271500-
...SOUTHWEST NORTH DAKOTA...

CITY           SKY/WX    TMP DP  RH WIND       PRES   REMARKS
BISMARCK       FAIR      64  45  49 S20       29.78F
DICKINSON      FAIR      64  41  42 S20       29.69S
GARRISON         N/A     60  43  53 S14       29.73F
HETTINGER      FAIR      66  45  46 S18G25    29.73F
$$

NDZ004>008-012>016-024-026-027-054-271500-
...NORTHEAST NORTH DAKOTA...

CITY           SKY/WX    TMP DP  RH WIND       PRES   REMARKS
GRAND FORKS    CLOUDY    67  46  47 S20G29    29.88F
GRAND FORKS AF FAIR      63  44  51 S15       29.88F
DEVILS LAKE    FAIR      63  45  51 S15       29.83F
$$

NDZ022-023-025-028>030-036>039-047>053-271500-
...SOUTHEAST NORTH DAKOTA...

CITY           SKY/WX    TMP DP  RH WIND       PRES   REMARKS
JAMESTOWN      FAIR      62  42  47 S16G28    29.87F
FARGO          FAIR      64  44  48 S13       29.95F
WAHPETON       FAIR      64  41  42 S14       29.97F
$$




USA.gov is the U.S. government's official web portal to all federal, state and local government web resources and services.